Wind_Speed
9 8 6 6 4 2 5 5 2 4 6 7 5 8 12 14 10 5 4 6 5 9 13 15 15 12 12 12 11 9 8 8 9 9 9 8 7 7 8 8 9 11 13 12 12 11 10 10 9
5 6 4 3 4 6 6 5 6 7 7 3 3 3 5 12 11 8 5 3 4 8 12 13 16 12 12 11 10 8 8 7 7 7 7 6 7 8 8 7 9 10 11 11 8 8 9 9 7
5 5 4 3 3 5 6 4 7 7 4 1 3 4 3 6 10 6 6 3 4 9 11 12 16 14 13 11 11 10 8 7 6 6 6 5 6 6 5 6 7 7 9 11 11 7 8 8 8
3 5 4 6 3 4 6 6 7 7 4 1 2 8 7 10 5 6 6 5 5 6 9 10 14 13 12 12 10 9 8 8 6 5 5 6 6 6 5 6 6 7 9 13 14 9 9 9 9
4 3 3 2 4 4 3 5 3 4 4 5 1 5 6 8 9 8 7 6 5 5 6 6 13 12 11 9 7 6 7 7 6 5 5 5 6 6 7 7 5 5 8 12 15 12 10 9 9
4 3 4 6 6 6 4 4 3 2 3 5 1 4 7 7 6 7 7 8 7 6 5 6 11 13 11 10 9 8 6 6 4 3 3 4 5 5 6 5 4 4 6 10 13 14 13 12 10
5 5 4 2 8 7 6 4 5 4 5 4 2 1 8 9 5 4 6 7 7 7 6 4 5 9 14 12 12 11 9 8 5 4 3 2 4 3 4 4 3 4 6 9 13 15 15 13 10
3 4 4 6 8 8 7 6 1 3 6 3 3 2 8 6 4 3 5 6 7 7 6 4 1 4 8 11 14 14 13 10 9 7 6 4 6 5 4 3 3 4 5 8 12 15 16 14 10
3 4 6 5 7 5 7 7 4 1 3 2 3 5 5 4 2 3 3 4 4 5 5 3 1 1 3 6 8 11 13 11 10 8 8 7 6 6 6 5 2 2 2 4 8 12 16 14 12
4 4 2 3 2 4 8 6 5 5 6 5 5 6 5 5 5 4 2 2 5 6 6 6 5 4 5 7 7 10 9 9 9 10 10 10 8 6 7 4 1 2 2 3 4 6 10 10 9
0 5 2 4 3 1 5 4 3 6 7 2 6 7 5 5 7 6 5 6 7 8 7 8 7 6 5 5 7 8 11 11 8 8 7 7 8 8 8 4 4 4 2 3 2 3 4 6 7
5 1 1 2 3 2 4 1 5 7 3 7 6 7 5 5 6 6 5 6 8 8 9 9 9 7 5 4 5 7 8 7 4 1 1 0 5 5 4 5 6 5 5 4 3 4 4 3 5
5 3 2 3 3 4 2 8 8 7 7 7 7 6 6 5 5 5 5 6 7 7 8 9 7 5 3 1 4 5 5 5 7 8 5 2 2 2 0 2 5 5 3 1 3 4 4 3 3
2 3 4 5 8 7 7 10 3 7 12 8 7 6 4 5 5 4 7 7 8 8 9 8 7 6 3 9 13 14 13 10 6 6 6 5 3 1 1 2 5 5 4 3 4 5 3 4 3
2 6 8 11 9 5 7 10 14 7 10 10 9 6 5 5 5 6 5 6 7 8 9 9 9 7 9 11 15 17 14 13 12 9 6 6 5 7 6 4 3 1 2 3 3 4 3 3 4
4 4 7 7 8 3 7 10 7 10 12 12 10 7 5 4 4 4 5 5 6 6 8 9 9 11 13 17 20 20 19 18 16 14 12 10 10 8 7 8 8 6 3 3 2 2 1 3 4
8 10 9 5 7 5 11 5 6 10 12 12 10 9 7 6 4 3 3 3 4 5 7 9 11 16 19 21 23 24 23 21 20 18 17 16 17 15 15 15 15 14 13 12 10 10 8 9 9
9 11 9 10 5 7 10 14 7 11 13 12 11 9 8 7 4 3 4 4 5 6 8 11 14 19 24 26 26 26 23 21 19 18 16 16 16 15 14 14 13 11 12 12 9 9 8 10 11
8 9 13 9 3 4 13 15 14 13 14 15 15 12 10 9 7 5 4 6 7 8 9 11 14 18 20 22 20 21 20 16 17 17 15 14 15 14 13 13 13 14 16 14 14 9 11 15 21
12 13 16 14 3 4 12 17 16 16 17 19 17 14 12 10 9 8 7 7 8 8 8 8 12 14 11 13 15 13 15 16 16 17 19 18 17 17 17 16 16 15 15 17 18 16 11 13 19
14 15 15 14 2 11 13 20 24 24 21 17 10 12 12 12 11 9 9 9 10 10 10 8 9 9 9 13 18 21 19 18 16 16 18 19 20 20 20 19 18 18 18 19 19 18 17 13 14
15 13 13 12 7 10 4 9 9 7 13 13 12 12 13 12 10 11 10 10 11 10 9 9 9 11 11 11 13 15 15 18 16 16 17 18 18 19 19 19 18 19 18 18 17 15 16 14 15
8 2 6 9 11 13 16 8 11 16 17 16 14 14 14 13 12 12 12 10 9 10 11 10 10 10 10 10 13 17 19 18 16 17 17 17 17 17 18 17 17 17 17 16 15 15 15 14 12
9 5 3 3 6 9 17 16 9 10 8 12 14 15 16 15 14 14 13 12 11 9 10 11 12 12 13 13 13 16 19 18 18 16 14 12 12 14 16 16 16 15 14 13 13 12 12 11 10
12 8 4 5 6 8 2 12 15 6 7 6 16 18 18 16 15 14 15 14 13 11 11 11 12 13 13 14 14 15 15 15 15 14 13 12 11 12 12 12 12 12 12 11 10 9 9 9 8
20 16 6 6 6 4 2 8 6 3 8 5 11 16 16 16 14 14 17 16 14 13 12 13 13 14 13 13 13 14 15 13 12 11 12 11 11 11 11 11 10 10 9 10 8 9 9 9 8
7 12 10 4 2 4 7 10 8 7 8 9 11 16 18 17 16 16 18 17 16 15 13 14 14 15 15 14 14 14 12 12 13 13 13 12 12 11 9 9 8 7 9 9 9 9 9 9 9
9 9 5 6 5 8 10 14 10 9 15 15 15 17 17 17 17 16 20 21 20 19 17 15 14 14 15 14 13 13 13 13 13 13 12 11 12 10 8 7 6 6 7 8 8 8 9 9 10
8 9 9 5 8 5 6 9 9 15 16 19 17 17 19 19 17 16 20 22 22 21 21 19 18 16 16 15 13 15 15 14 13 13 13 12 11 9 7 5 3 3 3 5 7 8 8 9 10
16 14 20 7 6 5 6 14 3 5 12 15 17 16 17 18 16 15 21 23 23 22 21 21 19 18 17 16 15 16 16 16 14 14 13 12 10 9 6 4 2 0 3 5 7 7 8 10 10
Wind_Direction
336 315 300 265 235 189 124 97 62 105 105 51 57 31 65 41 21 61 91 102 63 153 160 163 161 169 162 156 150 140 125 119 113 113 112 108 102 96 107 82 77 77 72 58 60 60 61 57 54
321 319 257 284 239 161 105 118 107 68 74 95 105 143 95 80 58 95 114 96 39 161 164 165 166 172 170 164 159 148 141 132 125 121 116 113 106 107 110 82 98 77 60 54 28 48 46 43 42
310 289 266 273 295 92 124 144 111 94 83 158 119 0 16 56 52 62 34 92 68 150 165 177 181 176 172 176 171 162 155 147 137 126 118 113 110 115 104 92 97 69 48 25 20 43 36 31 27
291 210 221 255 119 68 101 121 114 129 113 127 340 96 99 46 47 46 59 54 85 133 171 192 190 179 185 186 182 178 172 165 153 136 126 120 116 106 102 109 85 43 24 21 24 38 34 24 24
246 252 227 167 121 115 110 97 132 150 107 111 265 115 85 56 72 66 60 60 86 120 158 192 191 188 199 204 199 203 196 185 169 156 141 145 130 117 120 121 111 38 13 19 21 24 29 26 31
234 278 234 193 152 140 137 125 158 163 129 115 187 133 79 81 64 60 65 69 79 109 122 164 203 199 205 214 202 212 225 224 199 180 172 174 149 121 120 115 101 64 24 20 24 24 23 19 26
280 251 268 238 162 166 154 150 200 154 153 95 23 212 120 80 51 79 84 82 82 95 116 134 181 227 213 211 216 214 220 235 229 218 229 234 179 144 134 118 94 59 38 26 26 26 25 21 22
277 267 224 213 179 188 145 171 110 256 108 112 358 173 159 54 21 135 93 79 66 58 58 58 135 203 219 223 228 221 215 228 236 231 246 245 206 201 170 126 94 33 6 13 14 18 21 22 24
301 242 217 197 203 167 148 187 142 57 241 111 41 30 54 26 61 142 164 85 58 41 31 18 357 327 246 233 234 234 230 234 236 244 249 237 217 215 187 179 230 296 326 359 11 7 12 13 21
268 264 195 17 163 180 164 209 168 217 201 180 135 102 75 71 84 105 69 24 19 12 5 1 339 284 237 223 222 224 227 232 236 233 230 218 223 210 178 196 217 314 321 338 8 8 14 31 23
173 289 122 146 115 116 161 202 211 234 238 248 218 147 105 86 73 69 57 38 12 0 1 356 348 325 291 233 208 212 215 223 234 242 240 219 199 189 192 215 243 254 232 283 313 352 74 20 35
234 182 185 123 146 175 201 307 240 243 46 85 82 105 117 88 67 46 32 18 9 8 2 356 353 347 328 283 233 205 205 214 222 225 127 225 214 226 233 231 243 234 228 242 273 297 325 13 23
245 179 202 158 172 239 313 247 260 247 130 121 115 122 102 85 63 49 29 28 21 15 6 3 2 358 4 116 187 175 179 101 86 68 49 64 49 19 301 224 242 240 238 229 272 276 302 326 344
29 231 228 221 227 228 232 247 245 234 146 159 161 132 109 78 48 50 28 21 18 15 13 13 30 55 113 133 160 154 163 150 126 88 57 52 16 318 345 156 191 212 209 214 234 266 257 296 320
262 264 232 230 219 236 219 245 228 196 169 179 173 158 118 76 60 48 33 27 16 18 22 38 45 78 117 131 144 139 144 140 137 128 117 104 100 84 88 103 87 17 316 261 267 307 327 326 315
245 249 251 109 171 161 204 266 160 150 174 180 177 164 148 103 80 55 37 35 36 43 49 63 71 95 112 117 115 109 107 104 101 96 89 84 93 101 100 82 71 61 62 34 32 16 346 336 324
209 262 212 183 197 151 206 272 140 176 191 183 185 174 172 157 135 85 70 69 68 79 95 99 108 117 122 122 116 112 106 96 87 85 79 83 84 83 86 83 77 67 62 56 45 42 40 20 360
265 226 246 255 146 219 221 249 175 193 208 208 197 184 188 181 166 161 139 121 110 107 115 118 118 124 126 126 122 118 114 110 106 96 82 75 73 72 70 68 66 61 55 48 40 38 32 22 352
293 285 275 276 110 272 254 262 260 189 213 222 214 202 198 187 174 165 143 130 122 122 127 131 131 130 124 116 106 101 95 94 93 89 84 90 92 82 72 65 58 57 58 46 39 41 28 20 11
244 259 262 271 142 253 273 264 260 250 209 223 219 209 202 179 176 157 145 133 130 129 125 127 135 138 140 132 129 122 113 103 100 93 86 81 82 84 83 81 74 67 61 58 51 47 43 38 30
234 243 260 272 169 234 276 269 250 244 244 223 244 241 195 189 174 161 155 146 138 142 141 144 138 130 127 128 126 121 113 105 99 89 87 84 86 86 87 84 80 76 70 62 58 52 52 40 39
248 231 255 266 262 270 167 282 262 230 210 217 220 212 188 184 171 159 156 152 142 141 138 134 131 127 130 134 133 129 127 118 111 104 98 91 89 87 83 82 78 75 71 65 58 55 54 53 36
260 48 237 251 258 274 253 267 267 241 225 212 207 202 196 180 172 163 155 141 135 137 138 140 142 135 129 131 136 126 119 116 115 110 103 95 91 90 89 87 84 78 73 68 63 59 56 53 50
128 113 110 224 251 252 234 226 256 207 228 234 176 188 182 178 172 163 153 149 143 136 134 140 137 129 127 126 128 130 131 131 129 124 115 109 101 90 86 85 85 84 80 73 66 58 54 55 53
200 176 239 238 212 250 109 216 248 184 148 183 179 181 179 177 173 166 163 163 154 148 144 138 135 127 127 130 128 130 129 133 132 128 127 122 111 105 99 93 85 78 74 69 62 58 48 44 42
197 200 207 249 228 255 71 230 236 249 108 116 177 175 173 177 179 174 171 165 161 158 158 153 148 138 139 136 133 132 132 135 131 129 127 126 125 121 110 97 85 71 62 52 43 35 26 19 18
179 222 255 284 186 272 217 242 263 160 177 168 166 171 178 183 184 179 173 172 171 172 172 167 161 155 153 150 147 142 142 141 139 137 136 138 132 124 118 103 80 65 43 35 31 15 10 9 354
217 162 179 218 229 240 249 249 237 212 202 183 178 184 185 186 185 181 179 179 179 180 178 176 174 170 160 161 156 151 148 149 150 147 145 146 141 132 114 94 78 51 30 12 5 352 340 342 335
182 208 224 249 228 249 266 250 192 204 197 189 186 187 185 187 186 183 183 184 183 182 183 184 183 177 172 169 166 162 159 161 160 160 159 156 151 139 126 114 90 41 4 344 345 331 325 327 324
238 218 207 219 190 244 270 260 147 185 183 177 187 183 185 188 185 182 183 182 184 188 187 188 188 187 185 175 173 173 172 175 174 174 172 166 160 155 154 161 167 300 323 329 330 318 316 315 315
Height
795 795 793 789 798 788 810 815 799 805 802 800 800 799 805 802 811 827 820 821 823 824 826 828 831 833 835 837 839 840 841 842 843 844 845 845 846 847 847 847 848 849 848 848 848 847 846 846 846
797 796 793 784 797 805 812 802 808 803 803 801 802 801 802 815 808 814 818 823 823 825 828 830 832 834 836 838 840 841 842 844 845 846 846 847 848 848 849 850 851 850 850 850 849 849 848 847 847
797 797 789 789 795 803 810 802 802 804 803 803 804 802 803 814 814 817 823 824 824 826 829 831 833 836 838 839 841 842 843 844 846 847 848 849 850 851 851 852 852 852 852 851 850 849 849 848 848
797 793 788 796 804 805 800 799 799 804 804 804 802 810 812 822 821 825 826 826 826 828 830 831 834 836 839 840 842 843 844 846 847 848 849 850 851 852 853 853 854 854 854 853 852 850 850 850 849
797 788 798 803 809 805 801 799 800 803 803 803 804 811 817 824 826 827 827 828 828 830 831 833 835 838 840 842 843 845 846 846 847 848 849 850 851 852 853 853 854 854 855 854 854 852 852 851 851
794 790 801 809 805 805 802 801 802 802 803 806 806 808 822 827 827 828 829 829 829 830 832 834 834 837 839 841 843 845 846 847 848 849 850 850 852 853 853 853 854 854 855 856 855 855 854 853 853
798 799 799 797 805 809 804 802 804 804 805 809 807 810 820 826 828 829 829 829 829 830 832 834 835 836 837 839 841 843 845 846 848 849 850 851 852 853 854 854 855 855 856 856 856 856 855 855 855
796 796 807 799 807 810 803 805 804 805 808 809 810 811 818 826 828 829 830 831 832 832 833 833 835 835 837 839 840 842 843 845 847 849 850 851 851 852 853 854 856 857 858 858 858 858 857 856 856
801 803 806 804 804 801 804 807 806 808 808 810 815 816 826 827 828 829 831 832 833 834 833 833 833 835 836 837 839 842 844 845 847 849 850 851 852 852 854 855 855 856 857 858 859 859 859 858 857
802 804 799 796 794 801 804 805 807 811 810 811 819 824 826 827 828 829 831 832 834 835 835 834 834 833 833 835 837 840 842 844 846 847 848 848 850 852 853 855 856 856 857 858 858 858 859 859 859
803 803 803 805 802 800 806 809 807 809 812 805 811 820 826 828 830 831 833 835 835 835 835 834 834 833 834 836 836 838 839 841 844 846 847 848 850 851 851 853 855 856 857 858 858 859 860 860 859
809 806 804 808 809 811 812 807 809 808 809 814 818 822 826 828 831 833 835 836 836 835 835 834 833 833 834 836 838 839 841 843 845 846 847 849 850 852 853 853 855 856 857 858 859 859 859 859 859
809 808 809 809 813 812 813 812 811 808 815 820 824 826 828 830 832 834 835 836 836 835 834 833 831 831 832 834 838 841 843 844 845 846 848 849 851 852 853 854 856 857 858 859 858 859 860 860 860
808 811 808 809 810 812 817 811 814 803 813 820 822 825 829 832 834 835 836 836 836 835 834 832 830 829 830 832 832 835 837 840 844 846 848 849 851 852 853 854 855 855 856 858 858 858 858 858 859
812 815 805 804 808 812 815 816 815 801 814 817 820 824 830 833 834 836 837 837 837 836 835 833 832 831 832 833 834 836 838 840 841 844 848 850 852 853 854 855 856 857 857 857 857 857 859 859 858
815 814 813 804 811 814 817 805 793 808 812 815 818 822 828 834 835 836 837 837 837 837 835 834 834 833 835 836 837 839 843 845 848 849 851 853 853 853 855 857 857 858 857 858 858 858 857 859 858
812 812 807 805 806 811 815 800 804 809 809 810 815 819 825 830 833 835 835 835 836 836 834 834 833 832 833 836 839 842 845 848 850 853 855 856 855 857 857 858 859 860 860 861 862 861 861 861 861
803 810 803 808 807 812 808 806 802 807 808 805 808 815 822 825 831 833 833 833 835 836 835 835 835 835 834 835 837 838 843 846 849 851 857 860 860 861 861 862 862 863 863 863 865 865 865 863 861
801 807 806 795 806 814 804 798 792 797 805 803 801 810 816 823 830 832 834 833 835 837 837 837 837 837 839 840 843 844 846 849 851 854 857 856 855 858 863 866 867 866 865 868 866 866 867 865 861
809 811 806 797 807 817 805 799 791 787 792 793 793 801 811 822 828 831 834 834 836 838 839 841 840 840 840 840 841 844 848 852 855 857 856 858 860 860 860 863 867 868 868 868 868 868 868 868 866
808 810 804 805 813 814 809 801 791 779 779 782 793 793 806 818 823 830 833 834 834 837 839 841 842 843 844 844 844 845 850 854 857 859 861 861 861 863 864 865 867 868 870 869 870 871 870 872 872
807 794 805 809 817 816 807 802 775 770 785 793 799 801 808 815 822 828 833 835 835 837 839 841 843 844 845 846 848 848 852 853 857 860 862 865 865 865 867 867 870 870 872 872 873 874 874 875 874
802 805 808 809 815 814 808 818 772 763 770 781 794 801 807 814 821 826 830 835 837 838 839 841 843 845 846 849 851 849 853 857 860 862 864 867 868 869 867 869 869 873 874 877 878 877 876 877 878
810 814 817 818 817 821 804 803 768 765 772 768 785 797 804 813 819 824 830 833 837 838 840 842 843 845 846 850 853 852 854 857 860 861 865 868 870 872 873 874 874 874 875 876 877 879 880 880 879
810 813 816 821 826 806 796 795 763 754 767 767 780 792 801 810 816 821 827 831 836 839 842 844 846 847 848 851 852 855 858 861 863 864 866 871 872 872 874 875 876 877 876 877 878 877 879 879 879
805 799 802 815 802 788 816 794 762 757 769 779 776 790 801 811 816 820 824 829 834 838 841 843 845 846 850 852 855 857 860 863 865 867 868 871 871 873 874 876 878 878 880 879 880 879 881 882 881
801 804 791 809 836 810 776 769 756 773 779 783 783 790 798 806 811 815 821 826 832 837 841 843 844 844 847 850 853 856 860 863 864 866 868 870 870 873 874 874 875 878 878 878 877 878 878 879 882
790 784 810 808 809 797 758 752 746 768 765 776 784 788 795 802 806 810 816 821 827 832 837 841 844 846 846 851 853 855 857 860 865 866 869 871 871 872 873 876 876 877 878 879 878 879 879 877 880
793 792 788 781 778 775 767 741 721 732 744 758 772 778 784 793 798 804 811 817 823 828 832 836 840 842 844 849 853 855 857 862 864 866 867 868 870 871 872 875 876 875 877 878 876 877 878 877 876
765 768 774 777 789 779 766 736 740 728 732 747 757 767 774 783 790 798 806 812 819 824 829 832 838 842 845 846 850 854 856 859 862 865 865 868 869 870 870 873 874 875 876 875 875 875 875 875 875